www.pogodaiklimat.ru

Погода и климат >> Архив погоды >> Новая Зеландия >> Пуперуа


ПОГОДА на Пуперуа

  • Прогноз погоды на Пуперуа
  • Монитор погоды на Пуперуа

АРХИВ ПОГОДЫ на Пуперуа

Время (UTC), дата Ветер
(напр.,м/с)
 
Видим.   Явления Облачность Т
(С)
Тd
(С)
f
(%)
Тe
(С)
Тes
(С)
Комфортность P
(гПа)
Po
(гПа)
Тmin
(С)
Tmax
(С)
R
(мм)
R24
(мм)
S
(см)
12 10.07 З 2 н/о н/о +13.9 +13.2 96 +13 +13 1019.0 1008.7 0.6
15 10.07 ЮЗ 1 н/о н/о +13.0 +12.6 97 +13 +13 1018.5 1008.2
18 10.07 ЮЗ 1 н/о н/о +11.6 +11.4 99 +12 +12 1019.4 1009.0 5
21 10.07 В 1 н/о н/о +12.8 +12.6 99 +13 +13 1020.8 1010.5
00 11.07 СЗ 2 н/о н/о +15.7 +13.0 84 +16 +16 1020.6 1010.4 +10.4 5
03 11.07 СЗ 2 н/о н/о +16.1 +12.8 81 +16 +16 1019.5 1009.3
06 11.07 СЗ 2 н/о н/о +14.0 +12.1 88 +13 +13 1019.6 1009.3
09 11.07 С 1 н/о н/о +12.7 +12.0 96 +13 +13 1020.2 1009.9
12 11.07 В 1 н/о н/о +12.3 +12.0 98 +13 +13 1019.5 1009.2 +17.2
15 11.07 ЮВ 2 н/о н/о +11.3 +11.1 99 +10 +10 1018.3 1007.9
18 11.07 СЗ 2 н/о н/о +13.8 +13.6 99 +13 +13 1017.2 1006.9 1
21 11.07 СЗ 2 н/о н/о +14.8 +14.0 95 +15 +15 1017.4 1007.2
00 12.07 СЗ 4 н/о н/о +16.5 +15.3 93 +16 +16 1015.3 1005.2 +11.0 4
03 12.07 З 3 н/о н/о +17.1 +14.7 86 +17 +17 1013.8 1003.7
06 12.07 З 2 н/о н/о +15.0 +12.8 87 +15 +15 1015.4 1005.2 0.6
09 12.07 З 2 н/о н/о +13.4 +11.7 89 +13 +13 1017.6 1007.3
12 12.07 СЗ 1 н/о н/о +11.3 +10.4 94 +11 +11 1018.7 1008.3 +17.5
15 12.07 СЗ 1 н/о н/о +10.8 +10.0 95 +10 +10 1019.1 1008.7
18 12.07 З 1 н/о н/о +9.9 +9.2 95 +10 +10 1019.2 1008.8 0.2
21 12.07 З 1 н/о н/о +12.8 +12.3 97 +13 +13 1019.9 1009.6
00 13.07 СЗ 2 н/о н/о +16.3 +13.1 81 +16 +16 1019.3 1009.1 +9.6 0.8
03 13.07 СЗ 3 н/о н/о +16.6 +12.6 77 +16 +16 1017.3 1007.1
06 13.07 СЗ 3 н/о н/о +15.6 +14.6 94 +15 +15 1017.2 1007.0
09 13.07 СЗ 3 н/о н/о +15.6 +14.4 93 +15 +15 1016.6 1006.4
12 13.07 СЗ 4 н/о н/о +15.9 +14.6 92 +15 +15 1014.3 1004.1 +17.1
15 13.07 СЗ 6 н/о н/о +16.3 +14.3 88 +15 +15 1011.8 1001.7
18 13.07 СЗ 6 н/о н/о +16.5 +14.3 87 +15 +15 1008.4 998.3
21 13.07 СЗ 7 н/о н/о +16.8 +14.6 87 +16 +16 1006.1 996.1
00 14.07 СЗ 6 н/о н/о +16.3 +15.0 92 +15 +15 1004.0 994.0 +15.0 0.6
03 14.07 СЗ 2 н/о н/о +14.2 +10.3 77 +14 +14 1003.3 993.2
06 14.07 З 3 н/о н/о +13.4 +11.1 86 +12 +12 1004.4 994.3 4
09 14.07 СЗ 2 н/о н/о +12.2 +9.5 84 +12 +12 1005.3 995.1
12 14.07 СЗ 2 н/о н/о +9.8 +9.0 95 +8 +8 1006.1 995.8 +18.0 0.6
15 14.07 З 2 н/о н/о +9.5 +8.5 93 +8 +8 1006.6 996.3
18 14.07 З 2 н/о н/о +9.3 +7.9 91 +8 +8 1007.6 997.3
21 14.07 З 1 н/о н/о +11.5 +8.7 83 +11 +11 1009.9 999.6
00 15.07 СЗ 2 н/о н/о +16.1 +9.0 63 +16 +16 1009.7 999.6 +8.5 4
03 15.07 СЗ 3 н/о н/о +16.2 +9.7 65 +16 +16 1007.2 997.1
06 15.07 С 5 н/о н/о +14.8 +9.3 70 +13 +13 1006.6 996.5
09 15.07 С 5 н/о н/о +14.8 +11.6 81 +13 +13 1005.3 995.2
12 15.07 С 7 н/о н/о +14.9 +12.1 83 +13 +13 1002.4 992.3 +16.3 0.6
15 15.07 С 7 н/о н/о +15.5 +12.7 83 +14 +14 999.4 989.4
18 15.07 СЗ 3 н/о н/о +12.6 +11.1 91 +11 +11 997.5 987.4 5
21 15.07 З 1 н/о н/о +12.6 +11.8 95 +12 +12 997.7 987.6
00 16.07 З 3 н/о н/о +15.4 +10.7 74 +15 +15 998.2 988.2 +12.0 6
03 16.07 З 5 н/о н/о +14.5 +8.1 65 +13 +13 998.3 988.3
06 16.07 З 3 н/о н/о +11.9 +8.0 77 +10 +10 999.8 989.7
09 16.07 З 2 н/о н/о +10.7 +8.9 89 +10 +10 1001.1 990.9
12 16.07 З 2 н/о н/о +11.2 +9.3 88 +10 +10 1000.5 990.3 +15.9
15 16.07 СЗ 2 н/о н/о +10.7 +9.9 95 +10 +10 1000.1 989.9
18 16.07 З 2 н/о н/о +10.5 +10.1 97 +9 +9 1000.8 990.6 6
21 16.07 З 2 н/о н/о +12.1 +9.6 85 +11 +11 1003.0 992.8
00 17.07 З 4 н/о н/о +16.0 +8.5 61 +15 +15 1003.2 993.2 +9.6 6
03 17.07 З 4 н/о н/о +15.9 +6.6 54 +15 +15 1003.0 993.0
06 17.07 З 3 н/о н/о +12.7 +8.5 76 +12 +12 1004.6 994.4
09 17.07 З 2 н/о н/о +10.5 +9.1 91 +9 +9 1006.7 996.4

 

Местоположение метеостанции Пуперуа (Новая Зеландия): широта -35.11 долгота 174.01 высота над уровнем моря 84 м.

В архиве по умолчанию представлена погода на Пуперуа за последнюю неделю. Архивные данные за месяц целиком и за предыдущие месяцы, начиная с января 2011 года, Вы можете получить, выбрав интересующий диапазон дат из раскрывающегося списка и нажав кнопку "Ввод!".


*Определитесь, кто Вы:
робот инопланетянин человек

Внимание! Время в таблицах - всемирное. Для получения местного времени необходимо прибавить поправку, которая равна 12 ч.

Смотрите также архив погоды в соседних городах и на ближайших метеорологических станциях:

Погода на Мокохинау (Новая Зеландия) (132 км)
Погода на Мысе Реинга (Новая Зеландия) (143 км)
Погода в Окленде (Новая Зеландия) (222 км)
Погода в Тауранге (Новая Зеландия) (345 км)
Погода в Тахароа (Новая Зеландия) (346 км)
Погода в Нью-Плимуте (Новая Зеландия) (434 км)
Погода на Таупо (Новая Зеландия) (442 км)
Погода в Хикс-Бей (Новая Зеландия) (470 км)
Погода на Уэйауру (Новая Зеландия) (502 км)
Погода в Гисборне (Новая Зеландия) (529 км)

Пояснения к столбцам:

Ветер - указаны скорость ветра в м/с - средняя за 10 мин, порывы в срок и между сроками (в фигурных скобках) и направление, откуда дует ветер: С - северный, СВ - северо-восточный, В - восточный, ЮВ - юго-восточный, Ю - южный, ЮЗ - юго-западный, З - западный, СЗ - северо-западный.
Видимость - горизонтальная дальность видимости в метрах или километрах. При видимости от 1 до 10 км при отсутствии осадков обычно наблюдается дымка, при ухудшении видимости до 1 км и менее - туман. В сухую погоду видимость может ухудшаться дымом, пылью или мглою.
Явления - указаны атмосферные явления, наблюдавшиеся в срок или в последний час перед сроком; фигурными скобками обозначены явления, наблюдавшиеся между сроками (за 1-3 часа до срока); квадратными скобками обозначены град или гололедные отложения с указанием их диаметра в мм.
Облачность - указаны через наклонную черту общая и нижняя облачность в баллах и высота нижней границы облаков в метрах; квадратными скобками обозначены формы облаков: Ci - перистые, Cs - перисто-слоистые, Cc - перисто-кучевые, Ac - высококучевые, As - высокослоистые, Sc - слоисто-кучевые, Ns - слоисто-дождевые, Cu - кучевые, Cb - кучево-дождевые. Подробнее классификацию облаков см. в Атласе облаков (PDF).
T - Температура воздуха - температура, измеренная на высоте 2 м над землей.
Td - Температура точки росы - температура, при понижении до которой содержащийся в воздухе водяной пар достигнет насыщения.
f - Относительная влажность воздуха - влажноcть воздуха, измеренная на высоте 2 м над землей.
Te - Эффективная температура - температура, которую ощущает одетый по сезону человек в тени. Характеристика душности погоды. При расчете учитывается влияние влажности воздуха и скорости ветра на теплоощущения человека.
Tes - Эффективная температура на солнце - температура, которую ощущает человек, с поправкой на солнечный нагрев. Характеристика знойности погоды. Зависит от высоты солнца над горизонтом, облачности и скорости ветра. Ночью, в пасмурную погоду, а также при ветре 12 м/с и более поправка равна нулю.
P - Атмосферное давление - приведенное к уровню моря атмосферное давление.
Po - Атмосферное давление - измеренное на уровне метеостанции атмосферное давление.
Tmin - Минимальная температура - минимум температуры воздуха на высоте 2 м над землей.
Tmax - Максимальная температура - максимум температуры воздуха на высоте 2 м над землей.
R - Количество осадков - Количество выпавших осадков за период времени, мм. При наведении курсора мыши на число - период времени, за который выпало указанное количество осадков.
R24 - Количество осадков - Количество выпавших осадков за 24 часа, мм.
S - Снежный покров - Высота снежного покрова, см. При наведении курсора мыши на число - состояние снежного покрова и степень покрытия местности в баллах.